| time (UTC) | temp F | wind direction | speed MPH | gust MPH | rain 1hr in | rain 24hr in | rain mn in | humidity % | barometer mb |
| 20260831230126 | 80 | 0 | 0.0 | 1.0 | 0.00 | 0.12 | 0.11 | 81 | 1016.3 |
| 20260831224624 | 81 | 11 | 0.0 | 2.0 | 0.00 | 0.12 | 0.11 | 80 | 1016.3 |
| 20260831223110 | 82 | 11 | 0.0 | 1.0 | 0.00 | 0.12 | 0.11 | 79 | 1016.4 |
| 20260831221608 | 82 | 0 | 0.0 | 1.0 | 0.00 | 0.12 | 0.11 | 79 | 1016.7 |
| 20260831220106 | 83 | 0 | 0.0 | 1.0 | 0.00 | 0.12 | 0.11 | 77 | 1016.8 |
| 20260831214559 | 84 | 0 | 0.0 | 1.0 | 0.00 | 0.12 | 0.11 | 75 | 1016.7 |
| 20260831213102 | 84 | 11 | 0.0 | 1.0 | 0.00 | 0.12 | 0.11 | 75 | 1016.7 |
| 20260831211621 | 85 | 0 | 0.0 | 2.0 | 0.00 | 0.12 | 0.11 | 74 | 1016.7 |
| 20260831210100 | 85 | 341 | 0.0 | 2.0 | 0.00 | 0.12 | 0.11 | 68 | 1016.5 |
| 20260831204604 | 85 | 48 | 0.0 | 3.0 | 0.00 | 0.12 | 0.11 | 68 | 1016.7 |
| 20260831203105 | 85 | 0 | 2.0 | 4.0 | 0.00 | 0.12 | 0.11 | 65 | 1016.9 |
| 20260831201610 | 85 | 320 | 1.0 | 4.0 | 0.00 | 0.12 | 0.11 | 71 | 1017.1 |
| 20260831194643 | 83 | 19 | 0.0 | 0.0 | 0.00 | 0.12 | 0.11 | 75 | 1017.5 |
| 20260831193059 | 82 | 0 | 0.0 | 2.0 | 0.00 | 0.12 | 0.11 | 76 | 1017.5 |
| 20260831191607 | 82 | 0 | 0.0 | 1.0 | 0.00 | 0.12 | 0.11 | 77 | 1017.7 |
| 20260831190109 | 82 | 0 | 0.0 | 2.0 | 0.00 | 0.12 | 0.11 | 76 | 1017.8 |
| 20260831184603 | 83 | 309 | 0.0 | 5.0 | 0.00 | 0.14 | 0.11 | 71 | 1018.0 |
| 20260831183108 | 84 | 323 | 2.0 | 7.0 | 0.00 | 0.14 | 0.11 | 70 | 1017.9 |
| 20260831181604 | 82 | 5 | 1.0 | 5.0 | 0.00 | 0.14 | 0.11 | 74 | 1017.9 |
| 20260831180107 | 82 | 11 | 1.0 | 6.0 | 0.00 | 0.14 | 0.11 | 74 | 1018.1 |
| 20260831174601 | 81 | 22 | 1.0 | 5.0 | 0.00 | 0.15 | 0.11 | 77 | 1018.1 |
| 20260831173104 | 80 | 344 | 0.0 | 10.0 | 0.00 | 0.15 | 0.11 | 80 | 1018.2 |
| 20260831171605 | 79 | 304 | 1.0 | 5.0 | 0.00 | 0.15 | 0.11 | 81 | 1018.3 |
| 20260831170110 | 78 | 344 | 3.0 | 9.0 | 0.00 | 0.15 | 0.11 | 82 | 1018.6 |
| 20260831164603 | 77 | 39 | 2.0 | 6.0 | 0.00 | 0.15 | 0.11 | 84 | 1018.6 |
| 20260831163106 | 75 | 277 | 0.0 | 2.0 | 0.00 | 0.15 | 0.11 | 88 | 1018.6 |
| 20260831161607 | 74 | 197 | 0.0 | 1.0 | 0.00 | 0.15 | 0.11 | 92 | 1018.7 |
| 20260831160104 | 72 | 0 | 0.0 | 1.0 | 0.00 | 0.15 | 0.11 | 93 | 1018.9 |
| 20260831154634 | 71 | 0 | 0.0 | 1.0 | 0.00 | 0.15 | 0.11 | 92 | 1019.2 |
| 20260831153118 | 70 | 0 | 0.0 | 5.0 | 0.00 | 0.15 | 0.11 | 92 | 1018.9 |
| 20260831151607 | 69 | 355 | 1.0 | 7.0 | 0.00 | 0.15 | 0.11 | 93 | 1019.0 |
| 20260831150105 | 69 | 36 | 0.0 | 1.0 | 0.00 | 0.15 | 0.11 | 93 | 1019.2 |
| 20260831144655 | 68 | 0 | 0.0 | 2.0 | 0.00 | 0.15 | 0.11 | 93 | 1019.1 |
| 20260831143106 | 68 | 0 | 0.0 | 2.0 | 0.00 | 0.15 | 0.11 | 93 | 1018.9 |
| 20260831141612 | 67 | 9 | 0.0 | 2.0 | 0.00 | 0.15 | 0.11 | 93 | 1018.9 |
| 20260831140105 | 67 | 5 | 1.0 | 3.0 | 0.00 | 0.15 | 0.11 | 94 | 1018.9 |
| 20260831134604 | 67 | 0 | 0.0 | 2.0 | 0.00 | 0.15 | 0.11 | 93 | 1019.0 |
| 20260831133109 | 66 | 0 | 0.0 | 3.0 | 0.00 | 0.15 | 0.11 | 94 | 1019.1 |
| 20260831131607 | 66 | 42 | 1.0 | 3.0 | 0.00 | 0.15 | 0.11 | 93 | 1018.9 |
| 20260831130109 | 66 | 57 | 0.0 | 3.0 | 0.01 | 0.15 | 0.11 | 93 | 1019.2 |
| 20260831124615 | 66 | 0 | 0.0 | 3.0 | 0.01 | 0.15 | 0.11 | 93 | 1019.3 |
| 20260831123104 | 66 | 0 | 0.0 | 1.0 | 0.01 | 0.15 | 0.11 | 93 | 1019.2 |
| 20260831121609 | 65 | 0 | 0.0 | 1.0 | 0.01 | 0.15 | 0.11 | 93 | 1019.2 |
| 20260831114604 | 65 | 16 | 0.0 | 2.0 | 0.00 | 0.14 | 0.10 | 93 | 1019.1 |
| 20260831113110 | 65 | 16 | 1.0 | 2.0 | 0.00 | 0.14 | 0.10 | 93 | 1018.9 |
| 20260831111603 | 65 | 0 | 0.0 | 2.0 | 0.00 | 0.14 | 0.10 | 92 | 1018.8 |
| 20260831104612 | 65 | 16 | 0.0 | 0.0 | 0.00 | 0.14 | 0.10 | 92 | 1018.7 |
| 20260831103103 | 65 | 0 | 0.0 | 0.0 | 0.00 | 0.14 | 0.10 | 92 | 1018.6 |
| 20260831101608 | 65 | 0 | 0.0 | 1.0 | 0.00 | 0.14 | 0.10 | 93 | 1018.5 |
| 20260831100119 | 65 | 16 | 0.0 | 2.0 | 0.00 | 0.14 | 0.10 | 92 | 1018.4 |
| 20260831094606 | 65 | 360 | 1.0 | 3.0 | 0.00 | 0.14 | 0.10 | 92 | 1018.1 |
| 20260831093108 | 65 | 0 | 0.0 | 2.0 | 0.00 | 0.14 | 0.10 | 92 | 1018.1 |
| 20260831091605 | 65 | 0 | 0.0 | 2.0 | 0.00 | 0.14 | 0.10 | 92 | 1018.3 |
| 20260831090105 | 65 | 0 | 0.0 | 3.0 | 0.00 | 0.14 | 0.10 | 92 | 1018.4 |
| 20260831084637 | 65 | 0 | 0.0 | 1.0 | 0.00 | 0.14 | 0.10 | 92 | 1018.4 |
| 20260831083108 | 65 | 52 | 0.0 | 1.0 | 0.00 | 0.14 | 0.10 | 91 | 1018.5 |
| 20260831081610 | 65 | 0 | 0.0 | 1.0 | 0.00 | 0.14 | 0.10 | 91 | 1018.6 |
| 20260831080128 | 65 | 53 | 0.0 | 2.0 | 0.01 | 0.14 | 0.10 | 91 | 1018.3 |
| 20260831074607 | 65 | 0 | 0.0 | 2.0 | 0.05 | 0.14 | 0.10 | 92 | 1018.2 |
| 20260831073105 | 65 | 0 | 0.0 | 3.0 | 0.08 | 0.14 | 0.10 | 92 | 1018.4 |
| 20260831071614 | 65 | 0 | 0.0 | 1.0 | 0.09 | 0.14 | 0.10 | 91 | 1018.2 |
| 20260831070110 | 65 | 0 | 0.0 | 1.0 | 0.09 | 0.13 | 0.09 | 90 | 1018.6 |
| 20260831064604 | 65 | 0 | 0.0 | 0.0 | 0.05 | 0.09 | 0.05 | 90 | 1019.2 |
| 20260831063116 | 65 | 0 | 0.0 | 1.0 | 0.02 | 0.06 | 0.02 | 90 | 1019.2 |
| 20260831061608 | 65 | 0 | 0.0 | 1.0 | 0.01 | 0.05 | 0.01 | 90 | 1018.9 |
| 20260831060105 | 65 | 0 | 0.0 | 0.0 | 0.00 | 0.04 | 0.00 | 90 | 1019.1 |
| 20260831054605 | 66 | 0 | 0.0 | 1.0 | 0.00 | 0.04 | 0.00 | 90 | 1019.1 |
| 20260831053122 | 66 | 0 | 0.0 | 1.0 | 0.00 | 0.04 | 0.00 | 90 | 1019.2 |
| 20260831051605 | 66 | 0 | 0.0 | 1.0 | 0.00 | 0.04 | 0.00 | 90 | 1019.2 |
| 20260831050127 | 66 | 0 | 0.0 | 0.0 | 0.00 | 0.04 | 0.00 | 89 | 1019.2 |
| 20260831044602 | 66 | 0 | 0.0 | 1.0 | 0.00 | 0.04 | 0.00 | 89 | 1019.4 |
| 20260831043103 | 66 | 0 | 0.0 | 0.0 | 0.00 | 0.04 | 0.00 | 89 | 1019.1 |
| 20260831041621 | 66 | 0 | 0.0 | 0.0 | 0.00 | 0.04 | 0.00 | 89 | 1019.2 |
| 20260831040116 | 66 | 0 | 0.0 | 0.0 | 0.00 | 0.04 | 0.00 | 89 | 1019.4 |
| 20260831034602 | 67 | 0 | 0.0 | 0.0 | 0.00 | 0.04 | 0.04 | 89 | 1019.5 |
| 20260831033113 | 67 | 0 | 0.0 | 1.0 | 0.00 | 0.04 | 0.04 | 88 | 1019.7 |
| 20260831031606 | 67 | 0 | 0.0 | 1.0 | 0.00 | 0.04 | 0.04 | 88 | 1019.8 |
| 20260831030107 | 67 | 0 | 0.0 | 3.0 | 0.00 | 0.04 | 0.04 | 89 | 1020.0 |
| 20260831024606 | 67 | 9 | 1.0 | 3.0 | 0.01 | 0.04 | 0.04 | 88 | 1020.2 |
| 20260831023106 | 67 | 137 | 0.0 | 1.0 | 0.01 | 0.04 | 0.04 | 87 | 1020.6 |
| 20260831021605 | 68 | 0 | 0.0 | 2.0 | 0.01 | 0.04 | 0.04 | 87 | 1020.7 |
| 20260831020105 | 68 | 0 | 0.0 | 1.0 | 0.01 | 0.04 | 0.04 | 87 | 1020.8 |
| 20260831014606 | 68 | 0 | 1.0 | 3.0 | 0.00 | 0.03 | 0.03 | 87 | 1020.8 |
| 20260831013106 | 68 | 0 | 0.0 | 2.0 | 0.00 | 0.03 | 0.03 | 87 | 1020.4 |
| 20260831011603 | 68 | 0 | 0.0 | 1.0 | 0.00 | 0.03 | 0.03 | 86 | 1020.2 |
| 20260831010112 | 68 | 0 | 0.0 | 0.0 | 0.00 | 0.03 | 0.03 | 86 | 1019.9 |
| 20260831004608 | 69 | 0 | 0.0 | 2.0 | 0.00 | 0.03 | 0.03 | 86 | 1019.6 |
| 20260831003111 | 69 | 0 | 0.0 | 0.0 | 0.00 | 0.03 | 0.03 | 85 | 1019.0 |
| 20260831001605 | 69 | 0 | 0.0 | 0.0 | 0.00 | 0.03 | 0.03 | 84 | 1018.5 |
| 20260831000106 | 70 | 0 | 0.0 | 0.0 | 0.00 | 0.03 | 0.03 | 84 | 1018.4 |
| 20260830234608 | 71 | 0 | 0.0 | 2.0 | 0.00 | 0.03 | 0.03 | 83 | 1018.4 |
| 20260830233104 | 71 | 0 | 0.0 | 1.0 | 0.00 | 0.03 | 0.03 | 82 | 1018.4 |
| 20260830231626 | 72 | 0 | 0.0 | 1.0 | 0.00 | 0.03 | 0.03 | 82 | 1018.1 |